Location: Castillon
(43.0896°N, 0.2156°E)
Time: 03:25:37
(UTC+00:00)

Cosmos 1980 Rocket - Pass Details

Date: 21 October 2021
Orbit: 828 x 851 km, 71.0° (Epoch: 07 December)

Event Time Altitude Azimuth Distance (km) Brightness Sun altitude
Rises 19:25:00 0° 258° (WSW) 3,392 6.4 -25.9°
Reaches altitude 10° 19:28:35 10° 281° (W) 2,466 5.6 -26.5°
Maximum altitude 19:31:46 15° 316° (NW) 2,129 4.9 -27.1°
Drops below altitude 10° 19:34:59 10° 351° (N) 2,481 4.8 -27.7°
Sets 19:38:37 0° 14° (NNE) 3,423 5.4 -28.3°
